| time (UTC) | temp C | wind direction | speed KPH | gust KPH | rain 1hr cm | rain 24hr cm | rain mn cm | humidity % | barometer mb |
| 20260509173109 | 15 | 190 | 6.4 | 8.0 | 0.00 | 0.00 | 0.00 | 39 | 1008.8 |
| 20260509172606 | 15 | 101 | 4.8 | 8.0 | 0.00 | 0.00 | 0.00 | 38 | 1008.8 |
| 20260509172102 | 15 | 329 | 11.3 | 14.5 | 0.00 | 0.00 | 0.00 | 40 | 1008.8 |
| 20260509171558 | 14 | 212 | 11.3 | 16.1 | 0.00 | 0.00 | 0.00 | 39 | 1008.8 |
| 20260509171054 | 15 | 352 | 8.0 | 11.3 | 0.00 | 0.00 | 0.00 | 39 | 1008.6 |
| 20260509170550 | 15 | 348 | 8.0 | 14.5 | 0.00 | 0.00 | 0.00 | 39 | 1008.4 |
| 20260509170046 | 15 | 21 | 16.1 | 24.1 | 0.00 | 0.00 | 0.00 | 38 | 1008.5 |
| 20260509165545 | 15 | 328 | 6.4 | 11.3 | 0.00 | 0.00 | 0.00 | 40 | 1008.5 |
| 20260509165040 | 15 | 56 | 8.0 | 11.3 | 0.00 | 0.00 | 0.00 | 38 | 1008.4 |
| 20260509164537 | 15 | 215 | 14.5 | 22.5 | 0.00 | 0.00 | 0.00 | 37 | 1008.4 |
| 20260509164033 | 15 | 281 | 8.0 | 14.5 | 0.00 | 0.00 | 0.00 | 40 | 1008.2 |
| 20260509163531 | 15 | 332 | 9.7 | 14.5 | 0.00 | 0.00 | 0.00 | 38 | 1008.1 |
| 20260509163026 | 15 | 323 | 8.0 | 11.3 | 0.00 | 0.00 | 0.00 | 38 | 1008.1 |
| 20260509162524 | 15 | 248 | 9.7 | 19.3 | 0.00 | 0.00 | 0.00 | 39 | 1008.2 |
| 20260509162019 | 15 | 316 | 12.9 | 16.1 | 0.00 | 0.00 | 0.00 | 37 | 1008.2 |
| 20260509161516 | 15 | 324 | 14.5 | 24.1 | 0.00 | 0.00 | 0.00 | 38 | 1008.1 |
| 20260509161011 | 15 | 0 | 4.8 | 4.8 | 0.00 | 0.00 | 0.00 | 38 | 1008.0 |
| 20260509160507 | 15 | 139 | 3.2 | 3.2 | 0.00 | 0.00 | 0.00 | 41 | 1007.8 |
| 20260509160003 | 15 | 2 | 8.0 | 11.3 | 0.00 | 0.00 | 0.00 | 39 | 1007.9 |
| 20260509155459 | 15 | 279 | 8.0 | 8.0 | 0.00 | 0.00 | 0.00 | 40 | 1007.8 |
| 20260509154955 | 14 | 192 | 8.0 | 14.5 | 0.00 | 0.00 | 0.00 | 40 | 1008.0 |
| 20260509154451 | 14 | 352 | 11.3 | 14.5 | 0.00 | 0.00 | 0.00 | 40 | 1007.8 |
| 20260509153949 | 14 | 8 | 12.9 | 16.1 | 0.00 | 0.00 | 0.00 | 42 | 1007.6 |
| 20260509153446 | 15 | 1 | 14.5 | 24.1 | 0.00 | 0.00 | 0.00 | 43 | 1007.6 |
| 20260509152943 | 14 | 214 | 8.0 | 11.3 | 0.00 | 0.00 | 0.00 | 43 | 1007.5 |
| 20260509152438 | 14 | 76 | 9.7 | 14.5 | 0.00 | 0.00 | 0.00 | 43 | 1007.6 |
| 20260509151936 | 13 | 17 | 6.4 | 8.0 | 0.00 | 0.00 | 0.00 | 48 | 1007.3 |
| 20260509151432 | 13 | 352 | 8.0 | 11.3 | 0.00 | 0.00 | 0.00 | 46 | 1007.4 |
| 20260509150930 | 13 | 199 | 4.8 | 8.0 | 0.00 | 0.00 | 0.00 | 45 | 1007.3 |
| 20260509150427 | 13 | 71 | 12.9 | 19.3 | 0.00 | 0.00 | 0.00 | 45 | 1007.3 |
| 20260509145925 | 13 | 339 | 6.4 | 8.0 | 0.00 | 0.00 | 0.00 | 46 | 1007.2 |
| 20260509145425 | 13 | 275 | 9.7 | 22.5 | 0.00 | 0.00 | 0.00 | 48 | 1007.2 |
| 20260509144921 | 12 | 2 | 3.2 | 4.8 | 0.00 | 0.00 | 0.00 | 49 | 1007.1 |
| 20260509144418 | 13 | 59 | 9.7 | 16.1 | 0.00 | 0.00 | 0.00 | 48 | 1007.2 |
| 20260509143915 | 13 | 55 | 3.2 | 4.8 | 0.00 | 0.00 | 0.00 | 51 | 1007.0 |
| 20260509143413 | 12 | 319 | 3.2 | 4.8 | 0.00 | 0.00 | 0.00 | 53 | 1007.0 |
| 20260509142909 | 12 | 346 | 8.0 | 11.3 | 0.00 | 0.00 | 0.00 | 56 | 1006.9 |
| 20260509142406 | 11 | 23 | 11.3 | 16.1 | 0.00 | 0.00 | 0.00 | 58 | 1007.0 |
| 20260509141901 | 11 | 0 | 3.2 | 4.8 | 0.00 | 0.00 | 0.00 | 58 | 1006.8 |
| 20260509141358 | 12 | 46 | 3.2 | 3.2 | 0.00 | 0.00 | 0.00 | 58 | 1006.6 |
| 20260509140855 | 11 | 128 | 1.6 | 3.2 | 0.00 | 0.00 | 0.00 | 60 | 1006.7 |
| 20260509140351 | 12 | 93 | 6.4 | 14.5 | 0.00 | 0.00 | 0.00 | 57 | 1006.6 |
| 20260509135850 | 12 | 50 | 12.9 | 19.3 | 0.00 | 0.00 | 0.00 | 61 | 1006.5 |
| 20260509135347 | 12 | 180 | 4.8 | 4.8 | 0.00 | 0.00 | 0.00 | 64 | 1006.3 |
| 20260509134844 | 12 | 236 | 3.2 | 4.8 | 0.00 | 0.00 | 0.00 | 64 | 1006.2 |
| 20260509134341 | 11 | 176 | 0.0 | 3.2 | 0.00 | 0.00 | 0.00 | 68 | 1006.2 |
| 20260509133838 | 11 | 105 | 3.2 | 3.2 | 0.00 | 0.00 | 0.00 | 70 | 1006.2 |
| 20260509133335 | 11 | 325 | 12.9 | 19.3 | 0.00 | 0.00 | 0.00 | 71 | 1006.2 |
| 20260509132834 | 11 | 104 | 9.7 | 14.5 | 0.00 | 0.00 | 0.00 | 70 | 1006.1 |
| 20260509132332 | 11 | 31 | 3.2 | 4.8 | 0.00 | 0.00 | 0.00 | 70 | 1006.0 |
| 20260509131828 | 11 | 170 | 16.1 | 24.1 | 0.00 | 0.00 | 0.00 | 68 | 1005.9 |
| 20260509131325 | 11 | 80 | 9.7 | 22.5 | 0.00 | 0.00 | 0.00 | 67 | 1005.8 |
| 20260509130821 | 11 | 243 | 4.8 | 4.8 | 0.00 | 0.00 | 0.00 | 69 | 1005.6 |
| 20260509130317 | 11 | 147 | 3.2 | 3.2 | 0.00 | 0.00 | 0.00 | 68 | 1005.7 |
| 20260509125814 | 11 | 282 | 6.4 | 8.0 | 0.00 | 0.00 | 0.00 | 69 | 1005.5 |
| 20260509125310 | 11 | 342 | 11.3 | 16.1 | 0.00 | 0.00 | 0.00 | 69 | 1005.6 |
| 20260509124807 | 10 | 70 | 3.2 | 3.2 | 0.00 | 0.00 | 0.00 | 70 | 1005.4 |
| 20260509124303 | 10 | 338 | 6.4 | 8.0 | 0.00 | 0.00 | 0.00 | 72 | 1005.4 |
| 20260509123802 | 10 | 312 | 8.0 | 14.5 | 0.00 | 0.00 | 0.00 | 73 | 1005.2 |
| 20260509123259 | 10 | 24 | 8.0 | 8.0 | 0.00 | 0.00 | 0.00 | 73 | 1005.0 |
| 20260509122754 | 11 | 303 | 3.2 | 4.8 | 0.00 | 0.00 | 0.00 | 73 | 1004.9 |
| 20260509122252 | 11 | 74 | 4.8 | 4.8 | 0.00 | 0.00 | 0.00 | 73 | 1004.8 |
| 20260509121748 | 11 | 3 | 9.7 | 14.5 | 0.00 | 0.00 | 0.00 | 72 | 1004.6 |
| 20260509121245 | 11 | 112 | 3.2 | 4.8 | 0.00 | 0.00 | 0.00 | 73 | 1004.7 |
| 20260509120744 | 11 | 107 | 9.7 | 11.3 | 0.00 | 0.00 | 0.00 | 73 | 1004.4 |
| 20260509120241 | 11 | 279 | 3.2 | 8.0 | 0.00 | 0.00 | 0.00 | 74 | 1004.5 |
| 20260509115739 | 11 | 339 | 8.0 | 11.3 | 0.00 | 0.00 | 0.00 | 74 | 1004.5 |
| 20260509115235 | 11 | 3 | 8.0 | 14.5 | 0.00 | 0.00 | 0.00 | 74 | 1004.3 |
| 20260509114734 | 11 | 28 | 6.4 | 8.0 | 0.00 | 0.00 | 0.00 | 73 | 1004.2 |
| 20260509114232 | 11 | 284 | 3.2 | 4.8 | 0.00 | 0.00 | 0.00 | 72 | 1004.2 |
| 20260509113731 | 11 | 171 | 8.0 | 11.3 | 0.00 | 0.00 | 0.00 | 73 | 1003.9 |
| 20260509113228 | 11 | 46 | 3.2 | 4.8 | 0.00 | 0.00 | 0.00 | 73 | 1004.0 |
| 20260509112724 | 11 | 154 | 0.0 | 0.0 | 0.00 | 0.00 | 0.00 | 73 | 1004.0 |
| 20260509112222 | 11 | 160 | 0.0 | 0.0 | 0.00 | 0.00 | 0.00 | 72 | 1003.6 |
| 20260509111718 | 11 | 160 | 0.0 | 0.0 | 0.00 | 0.00 | 0.00 | 72 | 1003.6 |
| 20260509111215 | 11 | 166 | 0.0 | 0.0 | 0.00 | 0.00 | 0.00 | 72 | 1003.7 |
| 20260509110713 | 11 | 172 | 0.0 | 0.0 | 0.00 | 0.00 | 0.00 | 72 | 1003.2 |
| 20260509110209 | 11 | 160 | 0.0 | 0.0 | 0.00 | 0.00 | 0.00 | 71 | 1003.2 |
| 20260509105708 | 11 | 172 | 1.6 | 3.2 | 0.00 | 0.00 | 0.00 | 72 | 1003.0 |
| 20260509105204 | 11 | 172 | 0.0 | 0.0 | 0.00 | 0.00 | 0.00 | 72 | 1003.1 |
| 20260509104702 | 11 | 136 | 0.0 | 0.0 | 0.00 | 0.00 | 0.00 | 71 | 1003.2 |
| 20260509104158 | 11 | 157 | 0.0 | 0.0 | 0.00 | 0.00 | 0.00 | 70 | 1002.9 |
| 20260509103656 | 11 | 144 | 0.0 | 0.0 | 0.00 | 0.00 | 0.00 | 69 | 1003.4 |
| 20260509103154 | 11 | 193 | 0.0 | 3.2 | 0.00 | 0.00 | 0.00 | 67 | 1003.3 |
| 20260509102652 | 11 | 201 | 1.6 | 3.2 | 0.00 | 0.00 | 0.00 | 65 | 1003.1 |
| 20260509102148 | 11 | 163 | 0.0 | 0.0 | 0.00 | 0.00 | 0.00 | 65 | 1003.0 |
| 20260509101644 | 11 | 181 | 0.0 | 3.2 | 0.00 | 0.00 | 0.00 | 65 | 1003.1 |
| 20260509101141 | 11 | 170 | 0.0 | 0.0 | 0.00 | 0.00 | 0.00 | 62 | 1002.8 |
| 20260509100639 | 11 | 167 | 0.0 | 0.0 | 0.00 | 0.00 | 0.00 | 60 | 1002.5 |
| 20260509100136 | 11 | 175 | 0.0 | 0.0 | 0.00 | 0.00 | 0.00 | 59 | 1002.9 |
| 20260509095632 | 11 | 172 | 0.0 | 3.2 | 0.00 | 0.00 | 0.00 | 59 | 1003.1 |
| 20260509095130 | 11 | 171 | 0.0 | 0.0 | 0.00 | 0.00 | 0.00 | 58 | 1003.2 |
| 20260509094626 | 11 | 177 | 0.0 | 0.0 | 0.00 | 0.00 | 0.00 | 57 | 1003.4 |
| 20260509094123 | 11 | 184 | 3.2 | 3.2 | 0.00 | 0.00 | 0.00 | 57 | 1003.4 |
| 20260509093622 | 11 | 202 | 0.0 | 3.2 | 0.00 | 0.00 | 0.00 | 57 | 1003.0 |
| 20260509093118 | 12 | 172 | 0.0 | 3.2 | 0.00 | 0.00 | 0.00 | 56 | 1003.4 |
| 20260509092616 | 12 | 152 | 0.0 | 0.0 | 0.00 | 0.00 | 0.00 | 56 | 1003.3 |
| 20260509092115 | 12 | 153 | 3.2 | 3.2 | 0.00 | 0.00 | 0.00 | 55 | 1003.5 |
| 20260509091612 | 12 | 217 | 3.2 | 4.8 | 0.00 | 0.00 | 0.00 | 54 | 1003.3 |
| 20260509091108 | 12 | 154 | 3.2 | 4.8 | 0.00 | 0.00 | 0.00 | 54 | 1003.1 |
| 20260509090606 | 12 | 17 | 9.7 | 14.5 | 0.00 | 0.00 | 0.00 | 53 | 1003.3 |
| 20260509085600 | 12 | 147 | 1.6 | 3.2 | 0.00 | 0.00 | 0.00 | 52 | 1003.2 |
| 20260509085055 | 12 | 181 | 0.0 | 0.0 | 0.00 | 0.00 | 0.00 | 52 | 1003.0 |
| 20260509084553 | 12 | 155 | 0.0 | 3.2 | 0.00 | 0.00 | 0.00 | 52 | 1003.0 |
| 20260509084050 | 12 | 169 | 3.2 | 3.2 | 0.00 | 0.00 | 0.00 | 51 | 1002.9 |
| 20260509083547 | 12 | 158 | 0.0 | 0.0 | 0.00 | 0.00 | 0.00 | 50 | 1002.8 |
| 20260509083044 | 12 | 202 | 6.4 | 8.0 | 0.00 | 0.00 | 0.00 | 50 | 1003.0 |
| 20260509082541 | 12 | 185 | 1.6 | 3.2 | 0.00 | 0.00 | 0.00 | 49 | 1002.6 |
| 20260509082038 | 12 | 170 | 3.2 | 4.8 | 0.00 | 0.00 | 0.00 | 48 | 1002.9 |
| 20260509081535 | 11 | 260 | 4.8 | 8.0 | 0.00 | 0.00 | 0.00 | 48 | 1002.9 |
| 20260509081032 | 11 | 309 | 3.2 | 4.8 | 0.00 | 0.00 | 0.00 | 51 | 1003.0 |
| 20260509080530 | 11 | 167 | 0.0 | 0.0 | 0.00 | 0.00 | 0.00 | 50 | 1002.1 |
| 20260509080028 | 11 | 169 | 0.0 | 0.0 | 0.00 | 0.00 | 0.00 | 49 | 1002.0 |
| 20260509075525 | 11 | 170 | 0.0 | 0.0 | 0.00 | 0.00 | 0.00 | 49 | 1002.1 |
| 20260509075023 | 11 | 171 | 0.0 | 0.0 | 0.00 | 0.00 | 0.00 | 49 | 1002.0 |
| 20260509074520 | 10 | 172 | 0.0 | 0.0 | 0.00 | 0.00 | 0.00 | 50 | 1002.1 |
| 20260509074016 | 10 | 168 | 0.0 | 0.0 | 0.00 | 0.00 | 0.00 | 50 | 1001.8 |
| 20260509073513 | 10 | 168 | 0.0 | 0.0 | 0.00 | 0.00 | 0.00 | 52 | 1001.8 |
| 20260509073009 | 10 | 167 | 0.0 | 0.0 | 0.00 | 0.00 | 0.00 | 53 | 1002.0 |
| 20260509072506 | 10 | 167 | 0.0 | 0.0 | 0.00 | 0.00 | 0.00 | 53 | 1002.0 |
| 20260509072003 | 10 | 163 | 0.0 | 0.0 | 0.00 | 0.00 | 0.00 | 54 | 1002.1 |
| 20260509071459 | 10 | 172 | 0.0 | 0.0 | 0.00 | 0.00 | 0.00 | 54 | 1002.1 |
| 20260509070957 | 9 | 173 | 0.0 | 0.0 | 0.00 | 0.00 | 0.00 | 56 | 1002.3 |
| 20260509070454 | 9 | 173 | 0.0 | 0.0 | 0.00 | 0.00 | 0.00 | 58 | 1002.2 |
| 20260509065949 | 8 | 173 | 0.0 | 0.0 | 0.00 | 0.00 | 0.00 | 58 | 1002.3 |
| 20260509065446 | 8 | 173 | 0.0 | 0.0 | 0.00 | 0.00 | 0.00 | 56 | 1002.2 |
| 20260509064943 | 8 | 173 | 0.0 | 0.0 | 0.00 | 0.00 | 0.00 | 56 | 1002.4 |
| 20260509064441 | 8 | 173 | 0.0 | 0.0 | 0.00 | 0.00 | 0.00 | 56 | 1002.1 |
| 20260509063939 | 8 | 173 | 0.0 | 0.0 | 0.00 | 0.00 | 0.00 | 56 | 1002.2 |
| 20260509063438 | 8 | 167 | 0.0 | 0.0 | 0.00 | 0.00 | 0.00 | 57 | 1002.4 |
| 20260509062935 | 8 | 167 | 0.0 | 0.0 | 0.00 | 0.00 | 0.00 | 56 | 1002.6 |
| 20260509062433 | 8 | 167 | 0.0 | 0.0 | 0.00 | 0.00 | 0.00 | 56 | 1002.4 |
| 20260509061930 | 8 | 167 | 0.0 | 0.0 | 0.00 | 0.00 | 0.00 | 55 | 1002.4 |
| 20260509061428 | 9 | 167 | 0.0 | 0.0 | 0.00 | 0.00 | 0.00 | 54 | 1002.5 |
| 20260509060925 | 9 | 167 | 0.0 | 0.0 | 0.00 | 0.00 | 0.00 | 53 | 1002.4 |
| 20260509060422 | 9 | 167 | 0.0 | 0.0 | 0.00 | 0.00 | 0.00 | 53 | 1002.4 |
| 20260509055917 | 10 | 167 | 0.0 | 0.0 | 0.00 | 0.00 | 0.00 | 51 | 1002.7 |
| 20260509055412 | 10 | 165 | 0.0 | 0.0 | 0.00 | 0.00 | 0.00 | 51 | 1002.6 |
| 20260509054910 | 10 | 164 | 0.0 | 0.0 | 0.00 | 0.00 | 0.00 | 50 | 1002.7 |
| 20260509054406 | 10 | 167 | 0.0 | 0.0 | 0.00 | 0.00 | 0.00 | 51 | 1002.8 |
| 20260509053905 | 10 | 167 | 0.0 | 0.0 | 0.00 | 0.00 | 0.00 | 49 | 1003.0 |
| 20260509053402 | 10 | 167 | 0.0 | 0.0 | 0.00 | 0.00 | 0.00 | 49 | 1003.0 |
| 20260509052900 | 10 | 167 | 0.0 | 0.0 | 0.00 | 0.00 | 0.00 | 48 | 1003.0 |
| 20260509052357 | 10 | 167 | 0.0 | 0.0 | 0.00 | 0.00 | 0.00 | 46 | 1003.0 |
| 20260509051855 | 11 | 168 | 0.0 | 0.0 | 0.00 | 0.00 | 0.00 | 45 | 1003.1 |
| 20260509051353 | 11 | 168 | 0.0 | 0.0 | 0.00 | 0.00 | 0.00 | 44 | 1003.2 |
| 20260509050849 | 11 | 165 | 0.0 | 0.0 | 0.00 | 0.00 | 0.00 | 43 | 1003.1 |
| 20260509050346 | 11 | 166 | 0.0 | 0.0 | 0.00 | 0.00 | 0.00 | 43 | 1003.5 |
| 20260509045843 | 11 | 165 | 0.0 | 0.0 | 0.00 | 0.00 | 0.00 | 42 | 1003.2 |
| 20260509045340 | 12 | 163 | 0.0 | 0.0 | 0.00 | 0.00 | 0.00 | 41 | 1003.3 |
| 20260509044837 | 12 | 168 | 0.0 | 0.0 | 0.00 | 0.00 | 0.00 | 39 | 1003.3 |
| 20260509044334 | 12 | 168 | 0.0 | 0.0 | 0.00 | 0.00 | 0.00 | 39 | 1003.5 |
| 20260509043831 | 13 | 168 | 0.0 | 0.0 | 0.00 | 0.00 | 0.00 | 38 | 1003.3 |
| 20260509043327 | 13 | 168 | 0.0 | 0.0 | 0.00 | 0.00 | 0.00 | 37 | 1003.3 |
| 20260509042823 | 14 | 167 | 0.0 | 0.0 | 0.00 | 0.00 | 0.00 | 36 | 1003.4 |
| 20260509042319 | 14 | 171 | 0.0 | 0.0 | 0.00 | 0.00 | 0.00 | 35 | 1003.6 |
| 20260509041816 | 14 | 303 | 3.2 | 4.8 | 0.00 | 0.00 | 0.00 | 34 | 1003.7 |
| 20260509041313 | 15 | 162 | 0.0 | 0.0 | 0.00 | 0.00 | 0.00 | 34 | 1003.7 |
| 20260509040811 | 15 | 197 | 0.0 | 0.0 | 0.00 | 0.00 | 0.00 | 35 | 1003.6 |
| 20260509040308 | 15 | 177 | 6.4 | 11.3 | 0.00 | 0.00 | 0.00 | 34 | 1003.4 |
| 20260509035805 | 15 | 178 | 0.0 | 0.0 | 0.00 | 0.00 | 0.00 | 35 | 1003.5 |
| 20260509035306 | 15 | 173 | 0.0 | 0.0 | 0.00 | 0.00 | 0.00 | 34 | 1003.4 |
| 20260509034759 | 15 | 172 | 3.2 | 3.2 | 0.00 | 0.00 | 0.00 | 34 | 1003.5 |
| 20260509034257 | 15 | 181 | 3.2 | 4.8 | 0.00 | 0.00 | 0.00 | 34 | 1003.6 |
| 20260509033753 | 15 | 151 | 3.2 | 4.8 | 0.00 | 0.00 | 0.00 | 34 | 1003.5 |
| 20260509033250 | 16 | 259 | 6.4 | 8.0 | 0.00 | 0.00 | 0.00 | 34 | 1003.6 |
| 20260509032747 | 16 | 151 | 3.2 | 4.8 | 0.00 | 0.00 | 0.00 | 34 | 1003.4 |
| 20260509032244 | 16 | 280 | 3.2 | 4.8 | 0.00 | 0.00 | 0.00 | 34 | 1003.4 |
| 20260509031742 | 16 | 123 | 1.6 | 3.2 | 0.00 | 0.00 | 0.00 | 34 | 1003.3 |
| 20260509031239 | 16 | 355 | 6.4 | 8.0 | 0.00 | 0.00 | 0.00 | 34 | 1003.3 |
| 20260509030737 | 16 | 132 | 6.4 | 8.0 | 0.00 | 0.00 | 0.00 | 34 | 1003.2 |
| 20260509030234 | 16 | 324 | 6.4 | 8.0 | 0.00 | 0.00 | 0.00 | 34 | 1003.2 |
| 20260509025731 | 16 | 82 | 6.4 | 8.0 | 0.00 | 0.00 | 0.00 | 34 | 1003.4 |
| 20260509025227 | 17 | 172 | 3.2 | 8.0 | 0.00 | 0.00 | 0.00 | 34 | 1003.0 |
| 20260509024722 | 17 | 301 | 6.4 | 8.0 | 0.00 | 0.00 | 0.00 | 33 | 1002.9 |
| 20260509024218 | 17 | 308 | 3.2 | 4.8 | 0.00 | 0.00 | 0.00 | 33 | 1002.9 |
| 20260509023716 | 17 | 288 | 6.4 | 11.3 | 0.00 | 0.00 | 0.00 | 33 | 1003.0 |
| 20260509023213 | 17 | 169 | 3.2 | 3.2 | 0.00 | 0.00 | 0.00 | 33 | 1003.0 |
| 20260509022708 | 17 | 343 | 9.7 | 14.5 | 0.00 | 0.00 | 0.00 | 33 | 1002.6 |
| 20260509022207 | 17 | 259 | 3.2 | 4.8 | 0.00 | 0.00 | 0.00 | 32 | 1002.7 |
| 20260509021703 | 17 | 249 | 3.2 | 8.0 | 0.00 | 0.00 | 0.00 | 32 | 1002.7 |
| 20260509021201 | 17 | 306 | 6.4 | 8.0 | 0.00 | 0.00 | 0.00 | 31 | 1002.6 |
| 20260509020659 | 18 | 135 | 3.2 | 4.8 | 0.00 | 0.00 | 0.00 | 31 | 1002.4 |
| 20260509020155 | 17 | 290 | 14.5 | 24.1 | 0.00 | 0.00 | 0.00 | 31 | 1002.2 |
| 20260509015654 | 18 | 181 | 1.6 | 3.2 | 0.00 | 0.00 | 0.00 | 31 | 1002.3 |
| 20260509015152 | 18 | 322 | 4.8 | 4.8 | 0.00 | 0.00 | 0.00 | 30 | 1002.1 |
| 20260509014648 | 18 | 356 | 3.2 | 4.8 | 0.00 | 0.00 | 0.00 | 30 | 1002.1 |
| 20260509014144 | 18 | 96 | 6.4 | 8.0 | 0.00 | 0.00 | 0.00 | 30 | 1002.0 |
| 20260509013641 | 18 | 163 | 3.2 | 8.0 | 0.00 | 0.00 | 0.00 | 30 | 1001.9 |
| 20260509013137 | 18 | 258 | 3.2 | 4.8 | 0.00 | 0.00 | 0.00 | 28 | 1001.8 |
| 20260509012634 | 18 | 248 | 12.9 | 22.5 | 0.00 | 0.00 | 0.00 | 28 | 1001.6 |
| 20260509012131 | 19 | 137 | 3.2 | 4.8 | 0.00 | 0.00 | 0.00 | 28 | 1001.8 |
| 20260509011629 | 19 | 69 | 4.8 | 4.8 | 0.00 | 0.00 | 0.00 | 27 | 1001.7 |
| 20260509011126 | 19 | 326 | 3.2 | 3.2 | 0.00 | 0.00 | 0.00 | 28 | 1001.6 |
| 20260509010623 | 20 | 176 | 3.2 | 4.8 | 0.00 | 0.00 | 0.00 | 27 | 1001.7 |
| 20260509010119 | 20 | 191 | 12.9 | 19.3 | 0.00 | 0.00 | 0.00 | 27 | 1001.7 |
| 20260509005618 | 20 | 155 | 1.6 | 3.2 | 0.00 | 0.00 | 0.00 | 28 | 1001.4 |
| 20260509005113 | 20 | 175 | 1.6 | 3.2 | 0.00 | 0.00 | 0.00 | 27 | 1001.4 |
| 20260509004609 | 20 | 264 | 3.2 | 8.0 | 0.00 | 0.00 | 0.00 | 26 | 1001.5 |
| 20260509004107 | 20 | 294 | 3.2 | 4.8 | 0.00 | 0.00 | 0.00 | 27 | 1001.5 |
| 20260509003605 | 20 | 205 | 3.2 | 3.2 | 0.00 | 0.00 | 0.00 | 26 | 1001.4 |
| 20260509003102 | 20 | 141 | 4.8 | 8.0 | 0.00 | 0.00 | 0.00 | 27 | 1001.3 |
| 20260509002559 | 21 | 164 | 3.2 | 4.8 | 0.00 | 0.00 | 0.00 | 26 | 1001.4 |
| 20260509002057 | 21 | 252 | 9.7 | 14.5 | 0.00 | 0.00 | 0.00 | 26 | 1001.5 |
| 20260509001554 | 21 | 176 | 4.8 | 8.0 | 0.00 | 0.00 | 0.00 | 26 | 1001.3 |
| 20260509001049 | 21 | 20 | 9.7 | 14.5 | 0.00 | 0.00 | 0.00 | 27 | 1001.6 |
| 20260509000548 | 21 | 51 | 3.2 | 3.2 | 0.00 | 0.00 | 0.00 | 27 | 1001.4 |
| 20260509000044 | 21 | 331 | 22.5 | 30.6 | 0.00 | 0.00 | 0.00 | 26 | 1001.4 |
| 20260508235542 | 21 | 161 | 3.2 | 8.0 | 0.00 | 0.00 | 0.00 | 27 | 1001.6 |
| 20260508235038 | 21 | 22 | 4.8 | 14.5 | 0.00 | 0.00 | 0.00 | 27 | 1001.4 |
| 20260508234535 | 21 | 176 | 4.8 | 8.0 | 0.00 | 0.00 | 0.00 | 27 | 1001.5 |
| 20260508234032 | 21 | 192 | 3.2 | 4.8 | 0.00 | 0.00 | 0.00 | 27 | 1001.7 |
| 20260508233532 | 21 | 209 | 4.8 | 4.8 | 0.00 | 0.00 | 0.00 | 27 | 1001.5 |
| 20260508233028 | 21 | 28 | 4.8 | 4.8 | 0.00 | 0.00 | 0.00 | 27 | 1001.3 |
| 20260508232525 | 21 | 210 | 3.2 | 3.2 | 0.00 | 0.00 | 0.00 | 28 | 1001.5 |
| 20260508232022 | 21 | 131 | 3.2 | 3.2 | 0.00 | 0.00 | 0.00 | 27 | 1001.5 |
| 20260508231520 | 21 | 161 | 6.4 | 8.0 | 0.00 | 0.00 | 0.00 | 27 | 1001.8 |
| 20260508231017 | 22 | 171 | 3.2 | 4.8 | 0.00 | 0.00 | 0.00 | 27 | 1001.4 |
| 20260508230513 | 22 | 144 | 11.3 | 19.3 | 0.00 | 0.00 | 0.00 | 26 | 1001.6 |
| 20260508230010 | 22 | 277 | 4.8 | 8.0 | 0.00 | 0.00 | 0.00 | 26 | 1001.5 |
| 20260508225508 | 22 | 177 | 0.0 | 0.0 | 0.00 | 0.00 | 0.00 | 27 | 1001.6 |
| 20260508225004 | 22 | 168 | 1.6 | 3.2 | 0.00 | 0.00 | 0.00 | 28 | 1001.5 |
| 20260508224502 | 22 | 14 | 8.0 | 14.5 | 0.00 | 0.00 | 0.00 | 26 | 1001.6 |
| 20260508223959 | 22 | 164 | 3.2 | 4.8 | 0.00 | 0.00 | 0.00 | 27 | 1001.7 |
| 20260508223457 | 22 | 188 | 1.6 | 3.2 | 0.00 | 0.00 | 0.00 | 26 | 1001.7 |
| 20260508222954 | 22 | 301 | 8.0 | 8.0 | 0.00 | 0.00 | 0.00 | 25 | 1001.5 |
| 20260508222451 | 22 | 153 | 1.6 | 3.2 | 0.00 | 0.00 | 0.00 | 27 | 1001.8 |
| 20260508221947 | 23 | 302 | 8.0 | 11.3 | 0.00 | 0.00 | 0.00 | 25 | 1001.7 |
| 20260508221443 | 23 | 170 | 1.6 | 3.2 | 0.00 | 0.00 | 0.00 | 26 | 1001.8 |
| 20260508220940 | 23 | 217 | 3.2 | 4.8 | 0.00 | 0.00 | 0.00 | 26 | 1001.8 |
| 20260508220437 | 23 | 188 | 3.2 | 3.2 | 0.00 | 0.00 | 0.00 | 26 | 1002.1 |
| 20260508215933 | 23 | 322 | 3.2 | 4.8 | 0.00 | 0.00 | 0.00 | 26 | 1001.8 |
| 20260508215430 | 22 | 165 | 0.0 | 3.2 | 0.00 | 0.00 | 0.00 | 26 | 1001.9 |
| 20260508214926 | 22 | 304 | 3.2 | 4.8 | 0.00 | 0.00 | 0.00 | 26 | 1002.0 |
| 20260508214424 | 22 | 160 | 0.0 | 0.0 | 0.00 | 0.00 | 0.00 | 29 | 1002.1 |
| 20260508213920 | 22 | 15 | 6.4 | 8.0 | 0.00 | 0.00 | 0.00 | 27 | 1002.1 |
| 20260508213418 | 22 | 156 | 3.2 | 3.2 | 0.00 | 0.00 | 0.00 | 27 | 1002.2 |
| 20260508212913 | 22 | 19 | 3.2 | 4.8 | 0.00 | 0.00 | 0.00 | 26 | 1002.1 |
| 20260508212410 | 23 | 152 | 4.8 | 4.8 | 0.00 | 0.00 | 0.00 | 26 | 1002.2 |
| 20260508211906 | 22 | 0 | 3.2 | 4.8 | 0.00 | 0.00 | 0.00 | 27 | 1002.4 |
| 20260508211401 | 21 | 256 | 3.2 | 4.8 | 0.00 | 0.00 | 0.00 | 27 | 1002.3 |
| 20260508210859 | 21 | 134 | 4.8 | 8.0 | 0.00 | 0.00 | 0.00 | 26 | 1002.4 |
| 20260508210355 | 22 | 180 | 3.2 | 4.8 | 0.00 | 0.00 | 0.00 | 26 | 1002.6 |
| 20260508205852 | 22 | 3 | 6.4 | 8.0 | 0.00 | 0.00 | 0.00 | 25 | 1002.7 |
| 20260508205349 | 23 | 154 | 4.8 | 4.8 | 0.00 | 0.00 | 0.00 | 25 | 1002.6 |
| 20260508204845 | 23 | 58 | 4.8 | 8.0 | 0.00 | 0.00 | 0.00 | 26 | 1002.6 |
| 20260508204342 | 22 | 150 | 0.0 | 3.2 | 0.00 | 0.00 | 0.00 | 26 | 1002.7 |
| 20260508203838 | 23 | 193 | 3.2 | 4.8 | 0.00 | 0.00 | 0.00 | 26 | 1003.0 |
| 20260508203334 | 22 | 321 | 12.9 | 19.3 | 0.00 | 0.00 | 0.00 | 25 | 1003.3 |
| 20260508202830 | 22 | 11 | 6.4 | 8.0 | 0.00 | 0.00 | 0.00 | 26 | 1003.0 |
| 20260508202328 | 21 | 203 | 8.0 | 11.3 | 0.00 | 0.00 | 0.00 | 27 | 1003.3 |
| 20260508201825 | 21 | 37 | 8.0 | 11.3 | 0.00 | 0.00 | 0.00 | 27 | 1003.4 |
| 20260508201322 | 21 | 184 | 3.2 | 4.8 | 0.00 | 0.00 | 0.00 | 27 | 1003.3 |
| 20260508200813 | 21 | 313 | 6.4 | 11.3 | 0.00 | 0.00 | 0.00 | 27 | 1003.5 |
| 20260508200309 | 22 | 259 | 6.4 | 14.5 | 0.00 | 0.00 | 0.00 | 27 | 1003.4 |
| 20260508195805 | 22 | 196 | 4.8 | 4.8 | 0.00 | 0.00 | 0.00 | 25 | 1003.6 |
| 20260508195305 | 21 | 255 | 3.2 | 4.8 | 0.00 | 0.00 | 0.00 | 25 | 1003.6 |
| 20260508194758 | 21 | 260 | 4.8 | 8.0 | 0.00 | 0.00 | 0.00 | 26 | 1003.8 |
| 20260508194256 | 21 | 164 | 3.2 | 4.8 | 0.00 | 0.00 | 0.00 | 25 | 1003.9 |
| 20260508193753 | 21 | 122 | 6.4 | 8.0 | 0.00 | 0.00 | 0.00 | 27 | 1003.8 |
| 20260508193249 | 21 | 358 | 9.7 | 11.3 | 0.00 | 0.00 | 0.00 | 26 | 1004.0 |
| 20260508192745 | 21 | 204 | 3.2 | 3.2 | 0.00 | 0.00 | 0.00 | 26 | 1003.8 |
| 20260508192243 | 21 | 354 | 12.9 | 16.1 | 0.00 | 0.00 | 0.00 | 24 | 1003.9 |
| 20260508191740 | 22 | 187 | 6.4 | 11.3 | 0.00 | 0.00 | 0.00 | 24 | 1004.0 |
| 20260508191237 | 21 | 14 | 8.0 | 11.3 | 0.00 | 0.00 | 0.00 | 25 | 1004.1 |
| 20260508190734 | 21 | 265 | 4.8 | 8.0 | 0.00 | 0.00 | 0.00 | 25 | 1004.3 |
| 20260508190230 | 21 | 218 | 4.8 | 4.8 | 0.00 | 0.00 | 0.00 | 25 | 1004.3 |
| 20260508185727 | 21 | 46 | 8.0 | 11.3 | 0.00 | 0.00 | 0.00 | 24 | 1004.3 |
| 20260508185225 | 22 | 356 | 6.4 | 8.0 | 0.00 | 0.00 | 0.00 | 26 | 1004.1 |
| 20260508184721 | 22 | 20 | 12.9 | 19.3 | 0.00 | 0.00 | 0.00 | 25 | 1004.3 |
| 20260508184219 | 23 | 169 | 3.2 | 4.8 | 0.00 | 0.00 | 0.00 | 26 | 1004.3 |
| 20260508183715 | 23 | 340 | 9.7 | 14.5 | 0.00 | 0.00 | 0.00 | 23 | 1004.3 |
| 20260508183212 | 22 | 348 | 3.2 | 8.0 | 0.00 | 0.00 | 0.00 | 27 | 1004.4 |
| 20260508182707 | 22 | 279 | 1.6 | 3.2 | 0.00 | 0.00 | 0.00 | 27 | 1004.5 |
| 20260508182204 | 22 | 139 | 1.6 | 4.8 | 0.00 | 0.00 | 0.00 | 26 | 1004.6 |
| 20260508181700 | 21 | 187 | 3.2 | 4.8 | 0.00 | 0.00 | 0.00 | 27 | 1004.7 |
| 20260508181157 | 21 | 166 | 3.2 | 4.8 | 0.00 | 0.00 | 0.00 | 24 | 1005.0 |
| 20260508180654 | 21 | 348 | 3.2 | 8.0 | 0.00 | 0.00 | 0.00 | 26 | 1004.8 |
| 20260508180151 | 21 | 98 | 6.4 | 11.3 | 0.00 | 0.00 | 0.00 | 25 | 1005.0 |
| 20260508175647 | 22 | 329 | 3.2 | 4.8 | 0.00 | 0.00 | 0.00 | 26 | 1005.2 |
| 20260508175144 | 21 | 232 | 3.2 | 4.8 | 0.00 | 0.00 | 0.00 | 27 | 1005.3 |
| 20260508174642 | 21 | 200 | 3.2 | 4.8 | 0.00 | 0.00 | 0.00 | 25 | 1005.4 |
| 20260508174138 | 21 | 153 | 4.8 | 8.0 | 0.00 | 0.00 | 0.00 | 26 | 1005.2 |
| 20260508173635 | 22 | 255 | 3.2 | 4.8 | 0.00 | 0.00 | 0.00 | 24 | 1005.7 |